THOR ABLESTAR DEB, 48823

Orbit data source: Space-Track

THOR ABLESTAR DEB, 48823 is space debris in LEO originally from a launch on Thu, 29 Jun 1961 UTC launched from the Air Force Eastern Test Range (AFETR). Debris objects in space refer to the collection of defunct objects orbiting the Earth. Examples of debris include non-operational satellites, rocket bodies, and fragments generated from explosions, collisions, or faulty payload assembly.

Loading next visibility...
Identifier
48823, 1961-015NB
Orbit
LEO
Country
Flag of USUS
Related business
Manufacturer
Unknown
Mission
Spacecraft
Bus & Motor
Unknown
Mass
Unknown
Launch date (UTC)
1961-06-29 (65 years ago)
Launch vehicle
Unknown
Launch site
Air Force Eastern Test Range (AFETR)
Object type
Payload
Rocket body
Debris
Shape & HBR
Unknown shape, 0.1 m
Radar Cross Section
Small (<0.1 m²)

Expand to show TLE details & history
Last TLE update: 4 days ago

TLE from 4 days ago
0 THOR ABLESTAR DEB
1 48823U 61015NB  26032.27845054  .00000633  00000-0  22962-3 0  9992
2 48823  66.6590 357.1851 0112815 181.2478 178.8360 14.36427870638190
Epoch: 2026-02-01T06:40Z
TLE epoch observation values (Epoch: 2026-02-01T06:40:58.126Z)
Latitude
-0°
Longitude
125.45253°
Altitude
853.074 km
Speed
7.385 km/s
True Right ascension
23h 48m 44s
True Declination
0° 00' 00"
Sunlit
Object was in daylight at epoch
Visualization orbit readout
Latitude
Unknown
Longitude
Unknown
Altitude
Unknown
Speed
Unknown
Apparent Right ascension
Unknown
Apparent Declination
Unknown
Sunlit
N/A
Visualization observer readout
Local Sidereal Time
14:21:48
Azimuth
Unknown
Elevation
Unknown
Doppler factor
Unknown
Orbital elements
Apogee altitude
849.327 km
Perigee altitude
688.073 km
Semi-major axis
7,146.837 km
Eccentricity
0.01128
Inclination
66.659°
RAAN
357.1851°
Arg. of periapsis
181.2478°
True anomaly
178.8619°
Mean anomaly
178.836°
Eccentric anomaly
178.84898°
Mean motion
3.5923 °/min
Orbital period
100.21 mins
BSTAR
0.00022962
Loading maneuver chart data...
Computing Atmospheric mass density...

Documentation

Showing up to 5 results
|